Peoria, IL

12:27 PM CST on November 20, 2017 (GMT -0600)
Greater Peoria Regional

Weather History for KPIA - May, 2012

Change the Weather History Date:

Tuesday, May 29, 2012

  Actual Average Record
Temperature  
Mean Temperature 72 °F 66 °F  
Max Temperature 85 °F 77 °F 99 °F (1934)
Min Temperature 59 °F 56 °F 33 °F (1965)
Degree Days  
Heating Degree Days 0 2  
Month to date heating degree days 44 143  
Since 1 July heating degree days 4569 5808  
Cooling Degree Days 7 4  
Month to date cooling degree days 142 59  
Year to date cooling degree days 193 73  
Growing Degree Days 22 (Base 50)    
Moisture  
Dew Point 51 °F    
Average Humidity 53    
Maximum Humidity 80    
Minimum Humidity 26    
Precipitation  
Precipitation 0.00 in 0.12 in 1.62 in (1889)
Month to date precipitation 1.57 4.07  
Year to date precipitation 8.54 14.07  
Snow  
Snow 0.00 in 0.00 in 0.00 in ()
Month to date snowfall 0.0 0.0  
Since 1 July snowfall 11.5 24.6  
Snow Depth 0.00 in    
Sea Level Pressure  
Sea Level Pressure 29.86 in    
Wind  
Wind Speed 5 mph (WNW)    
Max Wind Speed 18 mph    
Max Gust Speed 24 mph    
Visibility 10 miles    
Events      
T = Trace of Precipitation, MM = Missing Value Source: NWS Daily Summary

Daily Weather History Graph

Daily Weather History Graph

Search for Another Location

Airport or City:

Trip Planner

Search our weather history database for the weather conditions in past years. The results will help you decide how hot, cold, wet, or windy it might be!

Date:

Astronomy

May. 29, 2012 Rise Set
Actual Time 5:31 AM CDT 8:21 PM CDT
Civil Twilight 4:58 AM CDT 8:54 PM CDT
Nautical Twilight 4:17 AM CDT 9:35 PM CDT
Astronomical Twilight 3:31 AM CDT 10:22 PM CDT
Moon 1:50 PM CDT (5/29) 1:26 AM CDT (5/29)
Length of Visible Light 15h 55m
Length of Day
14h 50m
First Quarter, 59% of the Moon is Illuminated
May 29
First Quarter
Jun 4
Full
Jun 11
Last Quarter
Jun 19
New
Jun 26
First Quarter

Hourly Weather History & Observations

Time (CDT) Temp. Dew Point Humidity Pressure Visibility Wind Dir Wind Speed Gust Speed Precip Events Conditions
12:54 AM 71.1 °F 62.1 °F 73% 29.80 in 10.0 mi NNW 8.1 mph - N/A   Clear
1:54 AM 70.0 °F 55.0 °F 59% 29.81 in 10.0 mi NNW 9.2 mph 18.4 mph N/A   Clear
2:54 AM 68.0 °F 54.0 °F 61% 29.85 in 10.0 mi Calm Calm - N/A   Scattered Clouds
3:54 AM 66.0 °F 53.1 °F 63% 29.85 in 10.0 mi Calm Calm - N/A   Clear
4:54 AM 62.1 °F 54.0 °F 75% 29.85 in 10.0 mi Calm Calm - N/A   Clear
5:54 AM 59.0 °F 54.0 °F 83% 29.86 in 10.0 mi Calm Calm - N/A   Clear
6:54 AM 62.1 °F 55.0 °F 78% 29.88 in 10.0 mi West 4.6 mph - N/A   Clear
7:54 AM 66.9 °F 55.0 °F 66% 29.88 in 10.0 mi West 3.5 mph - N/A   Clear
8:54 AM 70.0 °F 55.0 °F 59% 29.88 in 10.0 mi SW 3.5 mph - N/A   Clear
9:54 AM 71.1 °F 55.0 °F 57% 29.88 in 10.0 mi SSW 5.8 mph - N/A   Clear
10:54 AM 75.0 °F 53.1 °F 46% 29.89 in 10.0 mi West 4.6 mph - N/A   Clear
11:54 AM 80.1 °F 48.9 °F 34% 29.88 in 10.0 mi Variable 6.9 mph - N/A   Clear
12:54 PM 82.0 °F 45.0 °F 27% 29.88 in 10.0 mi WSW 11.5 mph 18.4 mph N/A   Clear
1:54 PM 82.0 °F 48.9 °F 31% 29.87 in 10.0 mi WNW 8.1 mph - N/A   Clear
2:54 PM 82.9 °F 48.0 °F 29% 29.87 in 10.0 mi West 16.1 mph 23.0 mph N/A   Clear
3:54 PM 82.0 °F 50.0 °F 33% 29.86 in 10.0 mi WSW 11.5 mph 20.7 mph N/A   Partly Cloudy
4:54 PM 82.9 °F 48.0 °F 29% 29.86 in 10.0 mi WNW 13.8 mph 20.7 mph N/A   Partly Cloudy
5:54 PM 81.0 °F 45.0 °F 28% 29.85 in 10.0 mi WNW 10.4 mph 20.7 mph N/A   Clear
6:54 PM 79.0 °F 44.1 °F 29% 29.85 in 10.0 mi NW 6.9 mph - N/A   Clear
7:54 PM 75.9 °F 45.0 °F 33% 29.85 in 10.0 mi Calm Calm - N/A   Clear
8:54 PM 70.0 °F 46.9 °F 44% 29.86 in 10.0 mi Calm Calm - N/A   Clear
9:54 PM 66.0 °F 48.0 °F 52% 29.88 in 10.0 mi Calm Calm - N/A   Clear
10:54 PM 66.0 °F 46.9 °F 50% 29.88 in 10.0 mi NW 3.5 mph - N/A   Clear
11:54 PM 64.9 °F 44.1 °F 47% 29.90 in 10.0 mi NNW 3.5 mph - N/A   Clear